Location: Kervinic
(48.4279°N, 4.7373°W)
Time: 01:11:46
(UTC+00:00)

Cosmos 1825 - Pass Details

Date: 09 April 2020
Orbit: 502 x 509 km, 82.5° (Epoch: 30 May)

Event Time Altitude Azimuth Distance (km) Brightness Sun altitude
Rises 21:35:23 0° 352° (N) 2,630 6.6 -23.0°
Reaches altitude 10° 21:37:32 10° 355° (N) 1,738 5.5 -23.2°
Enters shadow 21:40:32 51° 18° (NNE) 647 2.7 -23.6°
